When you browse on this site, cookies collect data to enhance your experience and personalize the content and advertising you see.
Visit our Privacy Policy to learn more. By continuing to use the site, you agree to this use of cookies and data.
  • In United Kingdom
  • List of Countries
  • For 7 days
  • Water Temperature
  • Satellite Maps
  • Weather Map
  • Weather Widgets
  • user-avatar
    Login

    Hourly Weather Bolgatanga

    Today, 17 January, Thursday

    Time Temperature Precipitation Wind Pressure Humidity
    00:00 +29°C° 0 mm 1 mps 741 mmHg 7%
    01:00 +29°C° 0 mm 1 mps 741 mmHg 8%
    02:00 +28°C° 0 mm 1 mps 741 mmHg 8%
    03:00 +28°C° 0 mm 2 mps 741 mmHg 8%
    04:00 +27°C° 0 mm 2 mps 741 mmHg 8%
    05:00 +26°C° 0 mm 2 mps 741 mmHg 8%
    06:00 +26°C° 0 mm 2 mps 741 mmHg 8%
    07:00 +29°C° 0 mm 2 mps 742 mmHg 8%
    08:00 +31°C° 0 mm 2 mps 742 mmHg 7%
    09:00 +34°C° 0 mm 3 mps 743 mmHg 6%
    10:00 +37°C° 0 mm 3 mps 742 mmHg 5%
    11:00 +39°C° 0 mm 3 mps 742 mmHg 5%
    12:00 +40°C° 0 mm 3 mps 742 mmHg 4%
    13:00 +40°C° 0 mm 3 mps 742 mmHg 4%
    14:00 +41°C° 0 mm 2 mps 741 mmHg 4%
    15:00 +42°C° 0 mm 2 mps 740 mmHg 4%
    16:00 +40°C° 0 mm 2 mps 740 mmHg 5%
    17:00 +37°C° 0 mm 1 mps 740 mmHg 6%
    18:00 +35°C° 0 mm 1 mps 740 mmHg 7%
    19:00 +33°C° 0 mm 1 mps 740 mmHg 7%
    20:00 +32°C° 0 mm 1 mps 741 mmHg 8%
    21:00 +31°C° 0 mm 1 mps 741 mmHg 8%
    22:00 +30°C° 0 mm 1 mps 741 mmHg 8%
    23:00 +30°C° 0 mm 1 mps 741 mmHg 8%

    Tomorrow, 18 January, Friday

    Time Temperature Precipitation Wind Pressure Humidity
    00:00 +29°C° 0 mm 1 mps 741 mmHg 9%
    01:00 +29°C° 0 mm 1 mps 741 mmHg 9%
    02:00 +29°C° 0 mm 1 mps 740 mmHg 9%
    03:00 +28°C° 0 mm 1 mps 740 mmHg 9%
    04:00 +28°C° 0 mm 1 mps 740 mmHg 9%
    05:00 +28°C° 0 mm 1 mps 741 mmHg 9%
    06:00 +27°C° 0 mm 2 mps 741 mmHg 9%
    07:00 +30°C° 0 mm 2 mps 741 mmHg 9%
    08:00 +32°C° 0 mm 2 mps 742 mmHg 9%
    09:00 +35°C° 0 mm 3 mps 742 mmHg 9%
    10:00 +37°C° 0 mm 3 mps 742 mmHg 9%
    11:00 +39°C° 0 mm 2 mps 742 mmHg 9%
    12:00 +41°C° 0 mm 2 mps 742 mmHg 9%
    13:00 +41°C° 0 mm 2 mps 741 mmHg 9%
    14:00 +42°C° 0 mm 2 mps 740 mmHg 9%
    15:00 +42°C° 0 mm 2 mps 739 mmHg 10%
    16:00 +41°C° 0 mm 2 mps 739 mmHg 12%
    17:00 +39°C° 0 mm 1 mps 739 mmHg 14%
    18:00 +36°C° 0 mm 1 mps 739 mmHg 15%
    19:00 +35°C° 0 mm 1 mps 740 mmHg 17%
    20:00 +34°C° 0 mm 1 mps 740 mmHg 19%
    21:00 +31°C° 0 mm 0 mps 741 mmHg 21%
    22:00 +32°C° 0 mm 1 mps 741 mmHg 22%
    23:00 +32°C° 0 mm 1 mps 741 mmHg 24%

    Day after tomorrow, 19 January, Saturday

    Time Temperature Precipitation Wind Pressure Humidity
    00:00 +31°C° 0 mm 1 mps 741 mmHg 25%
    01:00 +31°C° 0 mm 1 mps 740 mmHg 27%
    02:00 +30°C° 0 mm 1 mps 740 mmHg 29%
    03:00 +30°C° 0 mm 1 mps 740 mmHg 31%
    04:00 +30°C° 0 mm 1 mps 740 mmHg 34%
    05:00 +30°C° 0 mm 2 mps 740 mmHg 37%
    06:00 +29°C° 0 mm 3 mps 741 mmHg 41%
    07:00 +31°C° 0 mm 3 mps 741 mmHg 43%
    08:00 +33°C° 0 mm 4 mps 742 mmHg 44%
    09:00 +35°C° 0 mm 5 mps 743 mmHg 46%
    10:00 +37°C° 0 mm 5 mps 742 mmHg 41%
    11:00 +38°C° 0 mm 4 mps 742 mmHg 37%
    12:00 +41°C° 0 mm 4 mps 742 mmHg 32%
    13:00 +41°C° 0 mm 4 mps 741 mmHg 31%
    14:00 +39°C° 0 mm 3 mps 740 mmHg 30%
    15:00 +39°C° 0 mm 3 mps 739 mmHg 30%
    16:00 +38°C° 0 mm 3 mps 740 mmHg 31%
    17:00 +38°C° 0 mm 2 mps 740 mmHg 33%
    18:00 +36°C° 0 mm 1 mps 740 mmHg 35%
    19:00 +35°C° 0 mm 1 mps 741 mmHg 37%
    20:00 +34°C° 0 mm 1 mps 741 mmHg 39%
    21:00 +33°C° 0 mm 1 mps 742 mmHg 41%
    22:00 +34°C° 0 mm 2 mps 742 mmHg 35%
    23:00 +34°C° 0 mm 3 mps 742 mmHg 28%

    20 January, Sunday

    Time Temperature Precipitation Wind Pressure Humidity
    00:00 +34°C° 0 mm 4 mps 742 mmHg 21%
    01:00 +33°C° 0 mm 3 mps 742 mmHg 17%
    02:00 +30°C° 0 mm 3 mps 741 mmHg 12%
    03:00 +29°C° 0 mm 3 mps 741 mmHg 8%
    04:00 +28°C° 0 mm 3 mps 742 mmHg 9%
    05:00 +28°C° 0 mm 3 mps 742 mmHg 10%
    06:00 +27°C° 0 mm 3 mps 742 mmHg 11%
    07:00 +28°C° 0 mm 3 mps 743 mmHg 10%
    08:00 +30°C° 0 mm 3 mps 744 mmHg 9%
    09:00 +31°C° 0 mm 3 mps 744 mmHg 9%
    10:00 +34°C° 0 mm 3 mps 744 mmHg 8%
    11:00 +36°C° 0 mm 3 mps 744 mmHg 8%
    12:00 +38°C° 0 mm 3 mps 743 mmHg 7%
    13:00 +38°C° 0 mm 3 mps 742 mmHg 8%
    14:00 +39°C° 0 mm 3 mps 741 mmHg 8%
    15:00 +40°C° 0 mm 2 mps 741 mmHg 8%
    16:00 +38°C° 0 mm 2 mps 741 mmHg 9%
    17:00 +37°C° 0 mm 2 mps 741 mmHg 10%
    18:00 +36°C° 0 mm 2 mps 741 mmHg 10%
    19:00 +35°C° 0 mm 2 mps 742 mmHg 11%
    20:00 +34°C° 0 mm 2 mps 742 mmHg 11%
    21:00 +32°C° 0 mm 2 mps 743 mmHg 11%
    22:00 +31°C° 0 mm 2 mps 743 mmHg 12%
    23:00 +30°C° 0 mm 3 mps 742 mmHg 12%

    21 January, Monday

    Time Temperature Precipitation Wind Pressure Humidity
    00:00 +30°C° 0 mm 3 mps 742 mmHg 12%
    01:00 +29°C° 0 mm 3 mps 742 mmHg 12%
    02:00 +28°C° 0 mm 3 mps 742 mmHg 12%
    03:00 +27°C° 0 mm 3 mps 741 mmHg 12%
    04:00 +27°C° 0 mm 3 mps 742 mmHg 11%
    05:00 +26°C° 0 mm 3 mps 742 mmHg 11%
    06:00 +26°C° 0 mm 3 mps 742 mmHg 11%
    07:00 +27°C° 0 mm 3 mps 743 mmHg 9%
    08:00 +29°C° 0 mm 3 mps 744 mmHg 8%
    09:00 +32°C° 0 mm 4 mps 744 mmHg 7%
    10:00 +34°C° 0 mm 3 mps 744 mmHg 6%
    11:00 +36°C° 0 mm 3 mps 743 mmHg 6%
    12:00 +38°C° 0 mm 3 mps 743 mmHg 5%
    13:00 +39°C° 0 mm 2 mps 742 mmHg 6%
    14:00 +40°C° 0 mm 2 mps 741 mmHg 6%
    15:00 +40°C° 0 mm 2 mps 740 mmHg 6%
    16:00 +39°C° 0 mm 2 mps 740 mmHg 7%
    17:00 +37°C° 0 mm 2 mps 741 mmHg 8%
    18:00 +36°C° 0 mm 2 mps 741 mmHg 8%
    19:00 +34°C° 0 mm 2 mps 741 mmHg 9%
    20:00 +32°C° 0 mm 2 mps 742 mmHg 10%
    21:00 +31°C° 0 mm 1 mps 742 mmHg 10%
    22:00 +30°C° 0 mm 2 mps 742 mmHg 11%
    23:00 +30°C° 0 mm 2 mps 742 mmHg 11%

    22 January, Tuesday

    Time Temperature Precipitation Wind Pressure Humidity
    00:00 +29°C° 0 mm 3 mps 742 mmHg 12%
    01:00 +28°C° 0 mm 3 mps 741 mmHg 11%
    02:00 +27°C° 0 mm 3 mps 741 mmHg 10%
    03:00 +27°C° 0 mm 3 mps 741 mmHg 9%
    04:00 +26°C° 0 mm 3 mps 741 mmHg 9%
    05:00 +26°C° 0 mm 3 mps 741 mmHg 8%
    06:00 +25°C° 0 mm 3 mps 742 mmHg 7%
    07:00 +27°C° 0 mm 4 mps 742 mmHg 6%
    08:00 +29°C° 0 mm 4 mps 743 mmHg 5%
    09:00 +32°C° 0 mm 4 mps 744 mmHg 4%
    10:00 +34°C° 0 mm 4 mps 743 mmHg 4%
    11:00 +36°C° 0 mm 4 mps 743 mmHg 5%
    12:00 +38°C° 0 mm 4 mps 743 mmHg 5%
    13:00 +39°C° 0 mm 3 mps 742 mmHg 5%
    14:00 +40°C° 0 mm 3 mps 741 mmHg 5%
    15:00 +40°C° 0 mm 3 mps 740 mmHg 5%
    16:00 +39°C° 0 mm 2 mps 740 mmHg 6%
    17:00 +37°C° 0 mm 2 mps 740 mmHg 7%
    18:00 +35°C° 0 mm 2 mps 740 mmHg 8%
    19:00 +34°C° 0 mm 2 mps 741 mmHg 8%
    20:00 +32°C° 0 mm 2 mps 741 mmHg 9%
    21:00 +31°C° 0 mm 2 mps 741 mmHg 9%
    22:00 +30°C° 0 mm 2 mps 741 mmHg 9%
    23:00 +29°C° 0 mm 2 mps 741 mmHg 10%
    Show more